sat.trackr.live / text

‹ back to catalog

STARLINK-31679

NORAD 59519 · 2024-073J

PAYLOAD ACTIVE UNKNOWN

§ Identity

Operator
Country
US
Launch date
2024-04-17
Launch site
AFETR
Launch vehicle
Mass (kg)
RCS (m²)

Purposes: comms

External: N2YO · Heavens-Above · Gunter

§ Orbital elements

Epoch: 2026-09-21T18:09:08.290080Z

Period
94.27 min
Inclination
43.0032°
Eccentricity
0.0000871
Mean motion
15.27576883 rev/d
Perigee alt
482.5 km
Apogee alt
483.7 km
Semi-major
6,861.2 km
B*
5.1254e-5
RAAN
280.1631°
Arg perigee
273.2720°
Mean anomaly
86.8032°
Rev number
13,628

§ Raw data

STARLINK-316791 59519U 24073J   26264.75634595  .00001149  00000+0  51254-4 0  99942 59519  43.0032 280.1631 0000871 273.2720  86.8032 15.27576883136282

JSON: /api/v1/satellites/59519 · /tle

For live sub-satellite position, see the globe view (requires WebGL).

§ Visibility from observer

Set your observer location to see the next 7 days of passes ≥ 10°. The values pass through the URL so the page stays shareable.

No JS? Fill the form by hand. The geolocation button needs JavaScript.